User: anonymous   Login
Location: Caltech
(34.1382°N, 118.1253°W)
Time: 13:17:19
(UTC-07:00)
Language:

PAYLOAD A - Orbit

View from above orbital plane
View from above orbital plane
View from above satellite
View from above satellite

Ground track
Ground track

The orbit data is extracted from the following two-line orbital elements,

1 27840U 03031A   16209.90363207 -.00000003 +00000-0 +12383-4 0  9991
2 27840 098.1963 215.5902 0098663 017.4442 343.0096 14.38859875686583
Epoch (UTC): 27 July 2016 21:41:13
Eccentricity: 0.0098663
inclination: 98.1963°
perigee height: 692 km
apogee height: 833 km
right ascension of ascending node: 215.5902°
argument of perigee: 17.4442°
revolutions per day: 14.38859875
mean anomaly at epoch: 343.0096°
orbit number at epoch: 68658

The dashed part of the orbit path shows where the satellite is in the earth's shadow,  

DLR